| time (UTC) | temp C | wind direction | speed KPH | gust KPH | rain 1hr cm | rain 24hr cm | rain mn cm | humidity % | barometer mb |
| 20260506224228 | 8 | 236 | 1.6 | 4.8 | 0.28 | 1.19 | 0.23 | 99 | 1009.9 |
| 20260506223726 | 8 | 236 | 1.6 | 4.8 | 0.28 | 1.17 | 0.20 | 99 | 1009.9 |
| 20260506223225 | 8 | 242 | 1.6 | 3.2 | 0.25 | 1.14 | 0.18 | 99 | 1009.7 |
| 20260506222725 | 8 | 245 | 3.2 | 6.4 | 0.25 | 1.12 | 0.15 | 99 | 1009.7 |
| 20260506222223 | 8 | 243 | 1.6 | 3.2 | 0.23 | 1.09 | 0.13 | 99 | 1009.7 |
| 20260506221724 | 8 | 243 | 4.8 | 6.4 | 0.23 | 1.07 | 0.10 | 99 | 1009.6 |
| 20260506221227 | 8 | 245 | 4.8 | 6.4 | 0.18 | 1.02 | 0.05 | 99 | 1009.7 |
| 20260506220719 | 8 | 241 | 4.8 | 6.4 | 0.15 | 0.99 | 0.03 | 99 | 1009.5 |
| 20260506220218 | 9 | 243 | 3.2 | 4.8 | 0.15 | 0.97 | 0.97 | 99 | 1009.5 |
| 20260506215717 | 9 | 237 | 1.6 | 4.8 | 0.20 | 0.97 | 0.97 | 99 | 1009.5 |
| 20260506215216 | 9 | 235 | 1.6 | 3.2 | 0.20 | 0.94 | 0.94 | 99 | 1009.5 |
| 20260506214734 | 9 | 243 | 1.6 | 4.8 | 0.23 | 0.91 | 0.91 | 99 | 1009.5 |
| 20260506214235 | 9 | 239 | 3.2 | 4.8 | 0.25 | 0.94 | 0.91 | 99 | 1009.4 |
| 20260506213735 | 9 | 242 | 3.2 | 4.8 | 0.25 | 0.91 | 0.89 | 99 | 1009.5 |
| 20260506213231 | 9 | 246 | 3.2 | 4.8 | 0.28 | 0.91 | 0.89 | 99 | 1009.4 |
| 20260506212729 | 9 | 242 | 3.2 | 3.2 | 0.28 | 0.89 | 0.86 | 99 | 1009.3 |
| 20260506212229 | 9 | 242 | 3.2 | 4.8 | 0.30 | 0.91 | 0.86 | 99 | 1009.2 |
| 20260506211730 | 9 | 244 | 4.8 | 4.8 | 0.33 | 0.89 | 0.84 | 99 | 1009.3 |
| 20260506211226 | 9 | 246 | 4.8 | 4.8 | 0.36 | 0.91 | 0.84 | 99 | 1009.3 |
| 20260506210725 | 9 | 250 | 4.8 | 4.8 | 0.38 | 0.94 | 0.84 | 99 | 1009.3 |
| 20260506210225 | 9 | 253 | 3.2 | 4.8 | 0.38 | 0.94 | 0.81 | 99 | 1009.2 |
| 20260506205722 | 9 | 248 | 4.8 | 9.7 | 0.38 | 0.91 | 0.76 | 99 | 1009.2 |
| 20260506205220 | 9 | 248 | 4.8 | 6.4 | 0.38 | 0.91 | 0.74 | 99 | 1009.2 |
| 20260506204732 | 9 | 249 | 3.2 | 4.8 | 0.33 | 0.86 | 0.69 | 99 | 1009.1 |
| 20260506204218 | 9 | 244 | 0.0 | 3.2 | 0.33 | 0.84 | 0.66 | 99 | 1009.1 |
| 20260506203722 | 9 | 0.0 | 0.0 | 0.33 | 0.81 | 0.64 | 99 | 1009.2 | |
| 20260506203235 | 10 | 0.0 | 0.0 | 0.30 | 0.81 | 0.61 | 99 | 1009.1 | |
| 20260506202733 | 10 | 311 | 0.0 | 1.6 | 0.33 | 0.91 | 0.58 | 99 | 1009.1 |
| 20260506202232 | 10 | 311 | 0.0 | 1.6 | 0.33 | 0.91 | 0.56 | 99 | 1009.0 |
| 20260506201731 | 10 | 311 | 0.0 | 1.6 | 0.30 | 0.86 | 0.51 | 99 | 1008.9 |
| 20260506201238 | 10 | 307 | 0.0 | 4.8 | 0.28 | 0.84 | 0.48 | 99 | 1009.0 |
| 20260506200729 | 10 | 234 | 0.0 | 1.6 | 0.28 | 0.81 | 0.46 | 99 | 1009.0 |
| 20260506200227 | 10 | 234 | 1.6 | 4.8 | 0.25 | 0.79 | 0.43 | 99 | 1009.0 |
| 20260506195726 | 10 | 234 | 4.8 | 4.8 | 0.23 | 0.74 | 0.38 | 99 | 1008.8 |
| 20260506195229 | 10 | 234 | 3.2 | 4.8 | 0.28 | 0.71 | 0.36 | 99 | 1008.8 |
| 20260506194724 | 10 | 234 | 1.6 | 3.2 | 0.36 | 0.71 | 0.36 | 99 | 1008.7 |
| 20260506194222 | 10 | 234 | 3.2 | 4.8 | 0.33 | 0.69 | 0.33 | 99 | 1008.7 |
| 20260506193721 | 10 | 234 | 3.2 | 4.8 | 0.30 | 0.66 | 0.30 | 99 | 1008.6 |
| 20260506193220 | 10 | 234 | 4.8 | 4.8 | 0.30 | 0.66 | 0.30 | 99 | 1008.7 |
| 20260506192718 | 10 | 233 | 4.8 | 4.8 | 0.25 | 0.61 | 0.25 | 99 | 1008.5 |
| 20260506192221 | 10 | 230 | 3.2 | 4.8 | 0.23 | 0.58 | 0.23 | 99 | 1008.5 |
| 20260506191737 | 10 | 236 | 3.2 | 4.8 | 0.20 | 0.56 | 0.20 | 98 | 1008.4 |
| 20260506191234 | 10 | 223 | 3.2 | 4.8 | 0.20 | 0.56 | 0.20 | 98 | 1008.3 |
| 20260506190732 | 10 | 223 | 3.2 | 4.8 | 0.18 | 0.53 | 0.18 | 98 | 1008.3 |
| 20260506190230 | 10 | 234 | 3.2 | 4.8 | 0.18 | 0.53 | 0.18 | 98 | 1008.3 |
| 20260506185729 | 10 | 233 | 3.2 | 4.8 | 0.15 | 0.51 | 0.15 | 97 | 1008.4 |
| 20260506185228 | 10 | 239 | 4.8 | 4.8 | 0.08 | 0.43 | 0.08 | 96 | 1008.4 |
| 20260506184733 | 10 | 238 | 4.8 | 4.8 | 0.00 | 0.36 | 0.00 | 95 | 1008.3 |
| 20260506184225 | 10 | 244 | 3.2 | 4.8 | 0.00 | 0.36 | 0.00 | 94 | 1008.2 |
| 20260506183724 | 10 | 251 | 4.8 | 4.8 | 0.00 | 0.36 | 0.00 | 94 | 1008.1 |
| 20260506183227 | 10 | 250 | 6.4 | 9.7 | 0.00 | 0.36 | 0.00 | 94 | 1008.1 |
| 20260506182725 | 11 | 245 | 6.4 | 9.7 | 0.00 | 0.36 | 0.00 | 93 | 1008.0 |
| 20260506182220 | 11 | 250 | 8.0 | 11.3 | 0.00 | 0.36 | 0.00 | 93 | 1007.9 |
| 20260506181719 | 11 | 256 | 6.4 | 9.7 | 0.00 | 0.36 | 0.00 | 91 | 1008.0 |
| 20260506181218 | 11 | 246 | 8.0 | 11.3 | 0.00 | 0.36 | 0.00 | 91 | 1007.9 |
| 20260506180720 | 11 | 245 | 8.0 | 14.5 | 0.00 | 0.36 | 0.00 | 91 | 1007.7 |
| 20260506180238 | 11 | 247 | 8.0 | 9.7 | 0.00 | 0.36 | 0.00 | 92 | 1007.9 |
| 20260506175733 | 11 | 240 | 9.7 | 12.9 | 0.00 | 0.36 | 0.00 | 91 | 1007.8 |
| 20260506175232 | 11 | 249 | 8.0 | 12.9 | 0.00 | 0.36 | 0.00 | 91 | 1007.7 |
| 20260506174735 | 11 | 249 | 9.7 | 14.5 | 0.00 | 0.36 | 0.00 | 92 | 1007.7 |
| 20260506174229 | 11 | 244 | 8.0 | 11.3 | 0.00 | 0.36 | 0.00 | 92 | 1007.7 |
| 20260506173728 | 11 | 241 | 6.4 | 11.3 | 0.00 | 0.36 | 0.00 | 93 | 1007.5 |
| 20260506173227 | 11 | 227 | 4.8 | 9.7 | 0.00 | 0.36 | 0.00 | 93 | 1007.4 |
| 20260506172730 | 11 | 236 | 6.4 | 9.7 | 0.00 | 0.36 | 0.00 | 93 | 1007.3 |
| 20260506172228 | 11 | 235 | 6.4 | 11.3 | 0.00 | 0.36 | 0.00 | 92 | 1007.3 |
| 20260506171723 | 11 | 233 | 6.4 | 11.3 | 0.00 | 0.36 | 0.00 | 91 | 1007.1 |
| 20260506171222 | 11 | 228 | 3.2 | 9.7 | 0.00 | 0.36 | 0.00 | 91 | 1007.0 |
| 20260506170721 | 11 | 242 | 3.2 | 6.4 | 0.00 | 0.36 | 0.00 | 90 | 1007.1 |
| 20260506170219 | 11 | 227 | 4.8 | 11.3 | 0.00 | 0.36 | 0.00 | 89 | 1007.1 |
| 20260506165726 | 11 | 233 | 6.4 | 11.3 | 0.00 | 0.36 | 0.00 | 89 | 1007.1 |
| 20260506165217 | 12 | 230 | 6.4 | 11.3 | 0.00 | 0.36 | 0.00 | 88 | 1007.1 |
| 20260506164715 | 12 | 233 | 6.4 | 11.3 | 0.00 | 0.36 | 0.00 | 86 | 1007.0 |
| 20260506164237 | 12 | 226 | 6.4 | 11.3 | 0.00 | 0.36 | 0.00 | 85 | 1007.1 |
| 20260506163732 | 12 | 241 | 6.4 | 11.3 | 0.00 | 0.36 | 0.00 | 83 | 1007.0 |
| 20260506163230 | 13 | 239 | 8.0 | 12.9 | 0.00 | 0.36 | 0.00 | 79 | 1006.9 |
| 20260506162729 | 14 | 226 | 4.8 | 14.5 | 0.00 | 0.36 | 0.00 | 73 | 1007.0 |
| 20260506162228 | 13 | 236 | 6.4 | 11.3 | 0.00 | 0.36 | 0.00 | 71 | 1007.1 |
| 20260506161726 | 14 | 232 | 6.4 | 11.3 | 0.00 | 0.36 | 0.00 | 72 | 1007.0 |
| 20260506161229 | 14 | 243 | 9.7 | 12.9 | 0.00 | 0.36 | 0.00 | 72 | 1007.1 |
| 20260506160726 | 13 | 236 | 6.4 | 12.9 | 0.00 | 0.36 | 0.00 | 73 | 1007.1 |
| 20260506160223 | 13 | 242 | 9.7 | 16.1 | 0.00 | 0.36 | 0.00 | 73 | 1007.1 |
| 20260506155722 | 13 | 254 | 8.0 | 11.3 | 0.00 | 0.36 | 0.00 | 74 | 1007.2 |
| 20260506155221 | 13 | 250 | 8.0 | 12.9 | 0.00 | 0.36 | 0.00 | 74 | 1007.2 |
| 20260506154720 | 13 | 258 | 9.7 | 12.9 | 0.00 | 0.36 | 0.00 | 74 | 1007.3 |
| 20260506154219 | 13 | 260 | 9.7 | 12.9 | 0.00 | 0.36 | 0.00 | 74 | 1007.3 |
| 20260506153721 | 14 | 257 | 8.0 | 12.9 | 0.00 | 0.36 | 0.00 | 74 | 1007.2 |
| 20260506153216 | 13 | 252 | 9.7 | 12.9 | 0.00 | 0.36 | 0.00 | 74 | 1007.2 |
| 20260506152735 | 13 | 254 | 11.3 | 12.9 | 0.00 | 0.36 | 0.00 | 73 | 1007.3 |
| 20260506152233 | 13 | 247 | 8.0 | 11.3 | 0.00 | 0.36 | 0.00 | 74 | 1007.2 |
| 20260506151732 | 13 | 252 | 8.0 | 11.3 | 0.00 | 0.36 | 0.00 | 73 | 1007.1 |
| 20260506151233 | 13 | 243 | 8.0 | 11.3 | 0.00 | 0.36 | 0.00 | 73 | 1007.1 |
| 20260506150732 | 13 | 243 | 6.4 | 11.3 | 0.00 | 0.36 | 0.00 | 73 | 1007.1 |
| 20260506150229 | 13 | 260 | 9.7 | 11.3 | 0.00 | 0.36 | 0.00 | 72 | 1007.0 |
| 20260506145728 | 13 | 246 | 8.0 | 11.3 | 0.00 | 0.36 | 0.00 | 72 | 1007.0 |
| 20260506145228 | 13 | 244 | 8.0 | 12.9 | 0.00 | 0.36 | 0.00 | 72 | 1007.0 |
| 20260506144727 | 13 | 249 | 6.4 | 9.7 | 0.00 | 0.36 | 0.00 | 72 | 1006.8 |
| 20260506144223 | 14 | 242 | 6.4 | 11.3 | 0.00 | 0.36 | 0.00 | 72 | 1006.8 |
| 20260506143722 | 14 | 252 | 6.4 | 9.7 | 0.00 | 0.36 | 0.00 | 72 | 1006.8 |
| 20260506143221 | 14 | 238 | 8.0 | 11.3 | 0.00 | 0.36 | 0.00 | 72 | 1006.8 |
| 20260506142720 | 14 | 249 | 6.4 | 11.3 | 0.00 | 0.36 | 0.00 | 71 | 1006.8 |
| 20260506142219 | 14 | 250 | 6.4 | 9.7 | 0.00 | 0.36 | 0.00 | 71 | 1006.8 |
| 20260506141720 | 14 | 246 | 6.4 | 9.7 | 0.00 | 0.36 | 0.00 | 71 | 1006.8 |
| 20260506141216 | 14 | 248 | 6.4 | 9.7 | 0.00 | 0.36 | 0.00 | 71 | 1006.8 |
| 20260506140735 | 14 | 240 | 4.8 | 6.4 | 0.00 | 0.36 | 0.00 | 70 | 1006.9 |
| 20260506140240 | 14 | 247 | 4.8 | 6.4 | 0.00 | 0.36 | 0.00 | 70 | 1006.9 |
| 20260506135734 | 14 | 247 | 8.0 | 12.9 | 0.00 | 0.36 | 0.00 | 70 | 1007.0 |
| 20260506135233 | 14 | 251 | 8.0 | 12.9 | 0.00 | 0.36 | 0.00 | 70 | 1007.0 |
| 20260506134730 | 13 | 248 | 4.8 | 9.7 | 0.00 | 0.36 | 0.00 | 69 | 1006.9 |
| 20260506134228 | 14 | 259 | 6.4 | 11.3 | 0.00 | 0.36 | 0.00 | 69 | 1006.9 |
| 20260506133726 | 14 | 251 | 8.0 | 12.9 | 0.00 | 0.36 | 0.00 | 71 | 1007.0 |
| 20260506133226 | 14 | 244 | 8.0 | 9.7 | 0.00 | 0.36 | 0.00 | 70 | 1006.9 |
| 20260506132724 | 14 | 239 | 9.7 | 12.9 | 0.00 | 0.36 | 0.00 | 70 | 1006.9 |
| 20260506132225 | 14 | 255 | 6.4 | 11.3 | 0.00 | 0.36 | 0.00 | 69 | 1006.8 |
| 20260506131723 | 14 | 249 | 6.4 | 11.3 | 0.00 | 0.36 | 0.00 | 70 | 1006.9 |
| 20260506131220 | 14 | 249 | 4.8 | 9.7 | 0.00 | 0.36 | 0.00 | 70 | 1006.9 |
| 20260506130719 | 15 | 241 | 8.0 | 11.3 | 0.00 | 0.36 | 0.00 | 70 | 1007.0 |
| 20260506130218 | 14 | 248 | 6.4 | 9.7 | 0.00 | 0.36 | 0.00 | 70 | 1006.9 |
| 20260506125721 | 15 | 254 | 8.0 | 11.3 | 0.00 | 0.36 | 0.00 | 70 | 1006.9 |
| 20260506125216 | 15 | 250 | 8.0 | 12.9 | 0.00 | 0.36 | 0.00 | 70 | 1006.9 |
| 20260506124740 | 15 | 253 | 9.7 | 14.5 | 0.00 | 0.36 | 0.00 | 69 | 1006.8 |
| 20260506124233 | 15 | 254 | 6.4 | 11.3 | 0.00 | 0.36 | 0.00 | 70 | 1006.7 |
| 20260506123732 | 14 | 258 | 6.4 | 11.3 | 0.00 | 0.36 | 0.00 | 72 | 1006.7 |
| 20260506123231 | 14 | 259 | 8.0 | 11.3 | 0.00 | 0.36 | 0.00 | 72 | 1006.8 |
| 20260506122734 | 14 | 253 | 8.0 | 11.3 | 0.00 | 0.36 | 0.00 | 73 | 1006.8 |
| 20260506122232 | 14 | 256 | 8.0 | 11.3 | 0.00 | 0.36 | 0.00 | 72 | 1006.9 |
| 20260506121728 | 14 | 232 | 9.7 | 17.7 | 0.00 | 0.36 | 0.00 | 70 | 1006.7 |
| 20260506121226 | 13 | 251 | 8.0 | 12.9 | 0.00 | 0.36 | 0.00 | 71 | 1006.8 |
| 20260506120727 | 13 | 259 | 9.7 | 17.7 | 0.00 | 0.36 | 0.00 | 72 | 1006.9 |
| 20260506120224 | 13 | 252 | 11.3 | 14.5 | 0.00 | 0.36 | 0.00 | 73 | 1006.9 |
| 20260506115723 | 13 | 249 | 11.3 | 16.1 | 0.00 | 0.36 | 0.00 | 75 | 1007.0 |
| 20260506115221 | 13 | 255 | 11.3 | 16.1 | 0.00 | 0.36 | 0.00 | 76 | 1006.9 |
| 20260506114721 | 13 | 261 | 11.3 | 14.5 | 0.00 | 0.36 | 0.00 | 77 | 1007.0 |
| 20260506114222 | 13 | 253 | 9.7 | 16.1 | 0.00 | 0.36 | 0.00 | 77 | 1007.0 |
| 20260506113717 | 13 | 239 | 9.7 | 14.5 | 0.00 | 0.36 | 0.00 | 78 | 1007.2 |
| 20260506113216 | 13 | 237 | 8.0 | 12.9 | 0.00 | 0.36 | 0.00 | 79 | 1007.3 |
| 20260506112734 | 13 | 254 | 11.3 | 14.5 | 0.00 | 0.36 | 0.00 | 79 | 1007.3 |
| 20260506112237 | 13 | 247 | 8.0 | 12.9 | 0.00 | 0.36 | 0.00 | 79 | 1007.3 |
| 20260506111732 | 13 | 229 | 3.2 | 6.4 | 0.00 | 0.36 | 0.00 | 77 | 1007.3 |
| 20260506111235 | 13 | 229 | 3.2 | 12.9 | 0.00 | 0.36 | 0.00 | 77 | 1007.3 |
| 20260506110730 | 13 | 232 | 8.0 | 12.9 | 0.00 | 0.36 | 0.00 | 76 | 1007.3 |
| 20260506110230 | 13 | 250 | 9.7 | 14.5 | 0.00 | 0.36 | 0.00 | 78 | 1007.3 |
| 20260506105727 | 13 | 245 | 9.7 | 14.5 | 0.00 | 0.36 | 0.00 | 78 | 1007.3 |
| 20260506105226 | 13 | 246 | 9.7 | 14.5 | 0.00 | 0.36 | 0.00 | 77 | 1007.3 |
| 20260506104725 | 13 | 245 | 9.7 | 16.1 | 0.00 | 0.36 | 0.00 | 74 | 1007.2 |
| 20260506104223 | 13 | 243 | 8.0 | 16.1 | 0.00 | 0.36 | 0.00 | 76 | 1007.3 |
| 20260506103728 | 13 | 250 | 9.7 | 14.5 | 0.00 | 0.36 | 0.00 | 77 | 1007.4 |
| 20260506103221 | 13 | 249 | 12.9 | 16.1 | 0.00 | 0.36 | 0.00 | 76 | 1007.3 |
| 20260506102720 | 12 | 256 | 11.3 | 14.5 | 0.00 | 0.36 | 0.00 | 78 | 1007.3 |
| 20260506102219 | 13 | 254 | 11.3 | 17.7 | 0.00 | 0.36 | 0.00 | 78 | 1007.3 |
| 20260506101717 | 13 | 253 | 11.3 | 16.1 | 0.00 | 0.36 | 0.00 | 78 | 1007.2 |
| 20260506101222 | 13 | 254 | 11.3 | 16.1 | 0.00 | 0.36 | 0.00 | 78 | 1007.3 |
| 20260506100735 | 13 | 252 | 9.7 | 12.9 | 0.00 | 0.36 | 0.00 | 78 | 1007.3 |
| 20260506100234 | 13 | 257 | 9.7 | 14.5 | 0.00 | 0.36 | 0.00 | 80 | 1007.3 |
| 20260506095733 | 13 | 243 | 9.7 | 14.5 | 0.00 | 0.36 | 0.00 | 79 | 1007.2 |
| 20260506095232 | 13 | 235 | 8.0 | 11.3 | 0.00 | 0.36 | 0.00 | 81 | 1007.3 |
| 20260506094736 | 13 | 249 | 6.4 | 14.5 | 0.00 | 0.36 | 0.00 | 81 | 1007.3 |
| 20260506094229 | 13 | 208 | 9.7 | 14.5 | 0.00 | 0.36 | 0.00 | 80 | 1007.2 |
| 20260506093728 | 13 | 244 | 8.0 | 12.9 | 0.00 | 0.36 | 0.00 | 83 | 1007.3 |
| 20260506093226 | 13 | 244 | 8.0 | 14.5 | 0.00 | 0.36 | 0.00 | 85 | 1007.3 |
| 20260506092726 | 12 | 230 | 6.4 | 12.9 | 0.00 | 0.36 | 0.00 | 84 | 1007.2 |
| 20260506092224 | 12 | 256 | 6.4 | 11.3 | 0.00 | 0.36 | 0.00 | 85 | 1007.3 |
| 20260506091726 | 12 | 239 | 8.0 | 11.3 | 0.00 | 0.36 | 0.00 | 84 | 1007.4 |
| 20260506091225 | 12 | 237 | 8.0 | 11.3 | 0.00 | 0.36 | 0.00 | 85 | 1007.3 |
| 20260506090720 | 12 | 259 | 9.7 | 12.9 | 0.00 | 0.36 | 0.00 | 85 | 1007.2 |
| 20260506090220 | 12 | 250 | 8.0 | 12.9 | 0.00 | 0.36 | 0.00 | 87 | 1007.3 |
| 20260506085717 | 12 | 262 | 11.3 | 14.5 | 0.00 | 0.36 | 0.00 | 86 | 1007.3 |
| 20260506085216 | 12 | 258 | 9.7 | 12.9 | 0.00 | 0.36 | 0.00 | 86 | 1007.2 |
| 20260506084735 | 12 | 248 | 9.7 | 14.5 | 0.00 | 0.36 | 0.00 | 86 | 1007.1 |
| 20260506084234 | 12 | 246 | 8.0 | 11.3 | 0.00 | 0.36 | 0.00 | 87 | 1007.2 |
| 20260506083734 | 12 | 248 | 8.0 | 11.3 | 0.00 | 0.36 | 0.00 | 88 | 1007.3 |
| 20260506083231 | 11 | 255 | 9.7 | 12.9 | 0.00 | 0.36 | 0.00 | 88 | 1007.1 |
| 20260506082732 | 11 | 254 | 9.7 | 12.9 | 0.00 | 0.36 | 0.00 | 89 | 1007.1 |
| 20260506082229 | 11 | 252 | 9.7 | 12.9 | 0.00 | 0.36 | 0.00 | 89 | 1006.9 |
| 20260506081728 | 11 | 254 | 9.7 | 12.9 | 0.00 | 0.36 | 0.00 | 89 | 1007.0 |
| 20260506081226 | 12 | 249 | 9.7 | 14.5 | 0.00 | 0.36 | 0.00 | 89 | 1006.9 |
| 20260506080725 | 12 | 251 | 8.0 | 12.9 | 0.00 | 0.36 | 0.00 | 91 | 1006.8 |
| 20260506080226 | 11 | 249 | 6.4 | 9.7 | 0.00 | 0.36 | 0.00 | 91 | 1006.8 |
| 20260506073217 | 11 | 243 | 4.8 | 9.7 | 0.00 | 0.36 | 0.00 | 92 | 1006.9 |
| 20260506072736 | 11 | 252 | 6.4 | 9.7 | 0.00 | 0.36 | 0.00 | 94 | 1006.9 |
| 20260506072234 | 11 | 241 | 6.4 | 9.7 | 0.00 | 0.36 | 0.00 | 94 | 1006.9 |
| 20260506071733 | 11 | 250 | 8.0 | 9.7 | 0.00 | 0.36 | 0.00 | 95 | 1006.9 |
| 20260506071232 | 11 | 247 | 8.0 | 12.9 | 0.00 | 0.36 | 0.00 | 95 | 1007.0 |
| 20260506070735 | 10 | 234 | 6.4 | 11.3 | 0.00 | 0.36 | 0.00 | 96 | 1007.0 |
| 20260506070230 | 11 | 239 | 6.4 | 11.3 | 0.00 | 0.36 | 0.00 | 95 | 1007.0 |
| 20260506062220 | 10 | 243 | 8.0 | 12.9 | 0.00 | 0.36 | 0.00 | 95 | 1006.9 |
| 20260506061718 | 10 | 248 | 9.7 | 12.9 | 0.00 | 0.36 | 0.00 | 95 | 1006.7 |
| 20260506061217 | 10 | 250 | 8.0 | 9.7 | 0.00 | 0.36 | 0.00 | 95 | 1006.8 |
| 20260506060718 | 10 | 252 | 8.0 | 9.7 | 0.00 | 0.36 | 0.00 | 96 | 1006.8 |
| 20260506060238 | 10 | 253 | 8.0 | 9.7 | 0.00 | 0.36 | 0.00 | 96 | 1007.0 |
| 20260506051222 | 10 | 249 | 8.0 | 11.3 | 0.00 | 0.36 | 0.00 | 98 | 1007.2 |
| 20260506050725 | 10 | 247 | 8.0 | 11.3 | 0.00 | 0.36 | 0.00 | 98 | 1007.2 |
| 20260506050219 | 10 | 247 | 8.0 | 12.9 | 0.00 | 0.36 | 0.00 | 97 | 1007.2 |
| 20260506044716 | 10 | 240 | 9.7 | 16.1 | 0.00 | 0.36 | 0.00 | 97 | 1007.0 |
| 20260506044235 | 10 | 249 | 9.7 | 12.9 | 0.00 | 0.36 | 0.00 | 98 | 1007.0 |
| 20260506043735 | 10 | 254 | 6.4 | 11.3 | 0.00 | 0.36 | 0.00 | 99 | 1007.0 |
| 20260506043239 | 10 | 245 | 6.4 | 6.4 | 0.00 | 0.36 | 0.00 | 99 | 1007.1 |
| 20260506042731 | 10 | 245 | 6.4 | 11.3 | 0.00 | 0.36 | 0.00 | 99 | 1007.1 |
| 20260506042229 | 10 | 247 | 6.4 | 9.7 | 0.00 | 0.36 | 0.00 | 99 | 1007.0 |
| 20260506041728 | 10 | 250 | 8.0 | 11.3 | 0.00 | 0.36 | 0.00 | 99 | 1006.9 |
| 20260506041231 | 10 | 248 | 6.4 | 9.7 | 0.00 | 0.36 | 0.00 | 99 | 1007.0 |
| 20260506040726 | 10 | 250 | 6.4 | 11.3 | 0.00 | 0.36 | 0.00 | 99 | 1007.0 |
| 20260506040224 | 10 | 243 | 6.4 | 6.4 | 0.00 | 0.36 | 0.00 | 99 | 1007.0 |
| 20260506035725 | 10 | 250 | 8.0 | 9.7 | 0.00 | 0.36 | 0.00 | 99 | 1007.0 |
| 20260506035226 | 10 | 248 | 8.0 | 11.3 | 0.00 | 0.36 | 0.00 | 99 | 1007.0 |
| 20260506034720 | 10 | 249 | 6.4 | 9.7 | 0.00 | 0.36 | 0.00 | 99 | 1007.1 |
| 20260506034219 | 10 | 243 | 8.0 | 11.3 | 0.00 | 0.36 | 0.00 | 99 | 1007.0 |
| 20260506033718 | 10 | 249 | 8.0 | 9.7 | 0.00 | 0.36 | 0.00 | 99 | 1007.1 |
| 20260506033216 | 10 | 246 | 8.0 | 12.9 | 0.00 | 0.36 | 0.00 | 99 | 1007.2 |
| 20260506032715 | 10 | 248 | 9.7 | 12.9 | 0.00 | 0.36 | 0.00 | 99 | 1007.3 |
| 20260506032234 | 10 | 245 | 8.0 | 11.3 | 0.00 | 0.36 | 0.00 | 99 | 1007.4 |
| 20260506031735 | 10 | 253 | 8.0 | 11.3 | 0.00 | 0.36 | 0.00 | 99 | 1007.3 |
| 20260506031232 | 10 | 243 | 6.4 | 9.7 | 0.00 | 0.36 | 0.00 | 99 | 1007.5 |
| 20260506030732 | 10 | 241 | 4.8 | 6.4 | 0.00 | 0.36 | 0.00 | 99 | 1007.4 |
| 20260506030229 | 10 | 243 | 6.4 | 9.7 | 0.00 | 0.36 | 0.00 | 99 | 1007.4 |
| 20260506025728 | 10 | 250 | 8.0 | 9.7 | 0.00 | 0.36 | 0.00 | 99 | 1007.6 |
| 20260506025226 | 10 | 247 | 8.0 | 9.7 | 0.00 | 0.36 | 0.00 | 99 | 1007.6 |
| 20260506024725 | 10 | 257 | 8.0 | 9.7 | 0.00 | 0.36 | 0.00 | 99 | 1007.5 |
| 20260506024226 | 10 | 249 | 9.7 | 14.5 | 0.00 | 0.36 | 0.00 | 99 | 1007.5 |
| 20260506023726 | 10 | 243 | 8.0 | 11.3 | 0.00 | 0.36 | 0.00 | 99 | 1007.6 |
| 20260506023221 | 10 | 249 | 9.7 | 12.9 | 0.00 | 0.36 | 0.00 | 99 | 1007.4 |
| 20260506022720 | 10 | 248 | 9.7 | 12.9 | 0.00 | 0.36 | 0.00 | 99 | 1007.5 |
| 20260506022219 | 10 | 252 | 8.0 | 11.3 | 0.00 | 0.36 | 0.00 | 99 | 1007.6 |
| 20260506021718 | 10 | 248 | 6.4 | 11.3 | 0.00 | 0.36 | 0.00 | 99 | 1007.5 |
| 20260506021217 | 10 | 248 | 6.4 | 9.7 | 0.00 | 0.36 | 0.00 | 99 | 1007.5 |
| 20260506020735 | 10 | 246 | 11.3 | 14.5 | 0.00 | 0.36 | 0.00 | 99 | 1007.5 |
| 20260506020242 | 10 | 245 | 9.7 | 14.5 | 0.00 | 0.36 | 0.00 | 99 | 1007.5 |
| 20260506015733 | 10 | 246 | 8.0 | 12.9 | 0.00 | 0.36 | 0.00 | 99 | 1007.5 |
| 20260506015231 | 10 | 244 | 6.4 | 9.7 | 0.00 | 0.36 | 0.00 | 99 | 1007.5 |
| 20260506014730 | 10 | 237 | 6.4 | 9.7 | 0.00 | 0.36 | 0.00 | 99 | 1007.6 |
| 20260506014228 | 10 | 236 | 4.8 | 6.4 | 0.00 | 0.36 | 0.00 | 99 | 1007.6 |
| 20260506013728 | 10 | 238 | 6.4 | 9.7 | 0.00 | 0.36 | 0.00 | 99 | 1007.8 |
| 20260506013232 | 10 | 241 | 4.8 | 6.4 | 0.00 | 0.36 | 0.00 | 99 | 1007.6 |
| 20260506012726 | 10 | 236 | 6.4 | 9.7 | 0.00 | 0.36 | 0.00 | 99 | 1007.7 |
| 20260506012224 | 10 | 239 | 8.0 | 11.3 | 0.00 | 0.36 | 0.00 | 99 | 1007.7 |
| 20260506011723 | 10 | 239 | 9.7 | 12.9 | 0.00 | 0.36 | 0.00 | 99 | 1007.8 |
| 20260506011221 | 10 | 240 | 6.4 | 9.7 | 0.00 | 0.36 | 0.00 | 99 | 1007.8 |
| 20260506010720 | 10 | 245 | 6.4 | 9.7 | 0.00 | 0.36 | 0.00 | 99 | 1007.9 |
| 20260506010223 | 10 | 244 | 8.0 | 9.7 | 0.00 | 0.36 | 0.00 | 99 | 1007.9 |
| 20260506005717 | 10 | 242 | 8.0 | 9.7 | 0.00 | 0.36 | 0.00 | 99 | 1007.9 |
| 20260506005216 | 10 | 246 | 8.0 | 11.3 | 0.00 | 0.36 | 0.00 | 99 | 1007.9 |
| 20260506004735 | 10 | 243 | 8.0 | 11.3 | 0.00 | 0.36 | 0.00 | 99 | 1007.9 |
| 20260506004234 | 10 | 240 | 11.3 | 17.7 | 0.00 | 0.36 | 0.00 | 99 | 1007.8 |
| 20260506003733 | 10 | 240 | 11.3 | 17.7 | 0.00 | 0.36 | 0.00 | 99 | 1007.9 |
| 20260506003231 | 11 | 244 | 9.7 | 14.5 | 0.00 | 0.36 | 0.00 | 99 | 1008.0 |
| 20260506002736 | 11 | 247 | 11.3 | 16.1 | 0.00 | 0.36 | 0.00 | 99 | 1008.0 |
| 20260506002229 | 11 | 244 | 11.3 | 20.9 | 0.00 | 0.36 | 0.00 | 99 | 1008.0 |
| 20260506001727 | 11 | 247 | 11.3 | 16.1 | 0.00 | 0.36 | 0.00 | 99 | 1008.1 |
| 20260506001226 | 11 | 243 | 9.7 | 12.9 | 0.00 | 0.36 | 0.00 | 99 | 1008.1 |
| 20260506000725 | 11 | 245 | 9.7 | 12.9 | 0.00 | 0.36 | 0.00 | 99 | 1008.1 |
| 20260506000228 | 11 | 249 | 11.3 | 14.5 | 0.00 | 0.36 | 0.00 | 99 | 1008.1 |
| 20260505235728 | 11 | 251 | 12.9 | 14.5 | 0.00 | 0.36 | 0.00 | 99 | 1008.2 |
| 20260505235221 | 11 | 246 | 11.3 | 16.1 | 0.00 | 0.36 | 0.00 | 99 | 1008.2 |
| 20260505234720 | 11 | 237 | 9.7 | 12.9 | 0.00 | 0.36 | 0.00 | 99 | 1008.3 |
| 20260505234225 | 11 | 245 | 11.3 | 14.5 | 0.00 | 0.36 | 0.00 | 99 | 1008.3 |
| 20260505233718 | 11 | 247 | 11.3 | 17.7 | 0.00 | 0.36 | 0.00 | 99 | 1008.3 |
| 20260505233217 | 11 | 241 | 11.3 | 14.5 | 0.00 | 0.36 | 0.00 | 99 | 1008.4 |
| 20260505232735 | 11 | 247 | 9.7 | 14.5 | 0.00 | 0.36 | 0.00 | 99 | 1008.2 |
| 20260505232234 | 11 | 249 | 9.7 | 12.9 | 0.00 | 0.36 | 0.00 | 99 | 1008.3 |
| 20260505231733 | 11 | 248 | 8.0 | 12.9 | 0.00 | 0.36 | 0.00 | 99 | 1008.4 |
| 20260505231238 | 11 | 244 | 8.0 | 11.3 | 0.00 | 0.36 | 0.00 | 99 | 1008.4 |
| 20260505230730 | 11 | 244 | 8.0 | 11.3 | 0.00 | 0.36 | 0.00 | 99 | 1008.5 |
| 20260505230229 | 11 | 241 | 8.0 | 11.3 | 0.00 | 0.36 | 0.00 | 99 | 1008.3 |
| 20260505225728 | 11 | 247 | 6.4 | 9.7 | 0.00 | 0.36 | 0.00 | 99 | 1008.4 |
| 20260505225227 | 11 | 241 | 6.4 | 9.7 | 0.00 | 0.36 | 0.00 | 99 | 1008.4 |
| 20260505224727 | 11 | 234 | 6.4 | 9.7 | 0.00 | 0.36 | 0.00 | 99 | 1008.4 |